sat.trackr.live / text

‹ back to catalog

STARLINK-5823

NORAD 55786 · 2023-028AX

PAYLOAD ACTIVE UNKNOWN

§ Identity

Operator
Country
US
Launch date
2023-03-03
Launch site
AFWTR
Launch vehicle
Mass (kg)
RCS (m²)

Purposes: comms

External: N2YO · Heavens-Above · Gunter

§ Orbital elements

Epoch: 2026-05-24T18:59:20.947488Z

Period
96.46 min
Inclination
70.0021°
Eccentricity
0.0021748
Mean motion
14.92810761 rev/d
Perigee alt
574.0 km
Apogee alt
604.3 km
Semi-major
6,967.3 km
B*
-2.0186e-1
RAAN
12.7840°
Arg perigee
146.6506°
Mean anomaly
213.6025°
Rev number
17,841

§ Raw data

STARLINK-58231 55786U 23028AX  26144.79121467 -.02065343  00000+0 -20186+0 0  99902 55786  70.0021  12.7840 0021748 146.6506 213.6025 14.92810761178414

JSON: /api/v1/satellites/55786 · /tle

For live sub-satellite position, see the globe view (requires WebGL).

§ Visibility from observer

Set your observer location to see the next 7 days of passes ≥ 10°. The values pass through the URL so the page stays shareable.

No JS? Fill the form by hand. The geolocation button needs JavaScript.